Flag for Ukraine Weather past 2 weeks in L'viv, Ukraine

Now
37 °F

Partly sunny.


Feels Like: 30 °F
Forecast: 29 / 36 °F
Wind: 10 mph from West

Location: L'Viv Airport

Current Time: Dec 25, 2014 at 3:43:41 PM

Latest Report: Dec 25, 2014 at 3:00 PM


Visibility: N/A

Pressure: 29.95 "Hg

Humidity: 87%

Dew point: 34 °F

Location of L'vivLocation

Historic Weather in L'viv — Graph

°F

L'viv temperature yesterday

Maximum temperature yesterday: 48 °F (at 12:30 AM)
Minimum temperature yesterday: 41 °F (at 7:30 PM)
Average temperature yesterday: 46 °F

Past Weeks' High & Low Weather Summary

 TemperatureHumidityPressure
High52 °F (Dec 15, 2:30 PM)100% (Dec 10, 2:00 PM)30.15 "Hg (Dec 10, 2:00 PM)
Low27 °F (Dec 17, 11:30 PM)50% (Dec 13, 12:00 PM)29.74 "Hg (Dec 22, 6:30 PM)
Average39 °F86%29.93 "Hg
* Reported Dec 10 2:00 PM — Dec 25 2:30 PM, L'viv, Weather by CustomWeather, © 2014

Note: Actual official high and low records may vary slightly from our data, if they occured in-between our weather recording intervals... More about our weather records

Advertising

L'viv weather history for previous 24 hours

 ConditionsComfort  
Time TempWeatherWind HumidityBarometerVisibility
2:30 PM
Dec 25
37 °FPartly sunny.13 mph87%29.95 "HgN/A
2:00 PM36 °FBroken clouds.13 mph93%29.92 "HgN/A
1:30 PM39 °FBroken clouds.10 mph81%29.92 "HgN/A
1:00 PM39 °FBroken clouds.10 mph87%29.92 "HgN/A
12:30 PM39 °FBroken clouds.13 mph81%29.92 "HgN/A
12:00 PM39 °FBroken clouds.13 mph81%29.92 "HgN/A
11:30 AM37 °FSprinkles. Broken clouds.17 mph93%29.95 "HgN/A
11:00 AM39 °FSprinkles. Partly sunny.15 mph87%29.92 "HgN/A
10:30 AM39 °FSprinkles. Broken clouds.13 mph93%29.92 "HgN/A
10:00 AM39 °FBroken clouds.13 mph87%29.92 "HgN/A
9:30 AM39 °FSprinkles. Broken clouds.17 mph87%29.92 "HgN/A
9:00 AM43 °FOvercast.15 mph81%29.89 "HgN/A
8:30 AM43 °FPartly sunny.15 mph81%29.86 "HgN/A
8:00 AM43 °FPassing clouds.13 mph81%29.86 "HgN/A
7:30 AM43 °FPartly cloudy.13 mph81%29.86 "HgN/A
7:00 AM43 °FPartly cloudy.10 mph81%29.86 "HgN/A
6:30 AM43 °FPartly cloudy.13 mph81%29.86 "HgN/A
5:30 AM41 °FSprinkles. Partly cloudy.13 mph87%29.86 "HgN/A
5:00 AM41 °FSprinkles. Partly cloudy.13 mph93%29.86 "HgN/A
4:30 AM41 °FSprinkles. Partly cloudy.13 mph93%29.86 "HgN/A
4:00 AM41 °FSprinkles. Partly cloudy.15 mph87%29.86 "Hg4 mi
3:30 AM41 °FSprinkles. Partly cloudy.13 mph87%29.86 "HgN/A
3:00 AM41 °FSprinkles. Partly cloudy.10 mph87%29.86 "HgN/A
2:30 AM41 °FSprinkles. Partly cloudy.8 mph87%29.86 "HgN/A
2:00 AM43 °FSprinkles. Partly cloudy.13 mph81%29.86 "HgN/A
1:30 AM43 °FSprinkles. Partly cloudy.13 mph76%29.86 "HgN/A
1:00 AM43 °FSprinkles. Partly cloudy.13 mph76%29.86 "HgN/A
12:30 AM43 °FSprinkles. Partly cloudy.10 mph76%29.86 "HgN/A
12:00 AM43 °FSprinkles. Partly cloudy.10 mph76%29.86 "HgN/A
11:30 PM
Dec 24
43 °FSprinkles. Partly cloudy.10 mph76%29.86 "HgN/A
11:00 PM43 °FSprinkles. Partly cloudy.13 mph71%29.86 "HgN/A
10:30 PM43 °FOvercast.13 mph71%29.86 "HgN/A
10:00 PM43 °FOvercast.10 mph71%29.86 "HgN/A
9:30 PM43 °FClear.10 mph71%29.86 "Hg10 mi
9:00 PM43 °FClear.10 mph71%29.86 "Hg10 mi
8:30 PM43 °FClear.10 mph71%29.86 "Hg10 mi
8:00 PM43 °FClear.10 mph71%29.86 "Hg10 mi
7:30 PM41 °FClear.10 mph76%29.86 "Hg10 mi
7:00 PM43 °FClear.8 mph76%29.86 "Hg10 mi
6:30 PM43 °FClear.13 mph71%29.86 "Hg10 mi
6:00 PM43 °FClear.13 mph71%29.86 "Hg10 mi
5:30 PM43 °FClear.13 mph76%29.86 "Hg10 mi
5:00 PM45 °FClear.15 mph71%29.86 "Hg10 mi
4:30 PM45 °FClear.13 mph71%29.86 "Hg10 mi
4:00 PM46 °FSunny.10 mph66%29.86 "Hg10 mi
3:30 PM46 °FPartly sunny.13 mph71%29.86 "HgN/A
3:00 PM48 °FPartly sunny.13 mph66%29.86 "HgN/A
Weather by CustomWeather, © 2014

See weather overviewHow to use our weather pages